Regional Weather Roundup
Issued by NWS Boston, MA

Current Version | Previous Version | Text Only | Print | Product List | Glossary Off
Versions: 1 2 3 4 5 6 7 8 9 10 11 12 13 14 15 16 17 18 19 20 21 22 23 24 25 26 27 28

000
ASUS41 KBOX 241610
RWRBOX

REGIONAL WEATHER ROUNDUP
NATIONAL WEATHER SERVICE TAUNTON MA
1200 PM EDT SUN SEP 24 2017

NOTE:  "FAIR" INDICATES FEW OR NO CLOUDS BELOW 12,000 FEET WITH NO
SIGNIFICANT WEATHER AND/OR OBSTRUCTIONS TO VISIBILITY.

MAZALL-241700-
EASTERN MASSACHUSETTS

CITY           SKY/WX    TMP DP  RH WIND       PRES   REMARKS
BOSTON         SUNNY     77  63  61 E5        30.06S
BEVERLY        SUNNY     83  67  58 NE6       30.05S
LAWRENCE       SUNNY     84  67  56 CALM      30.07F
BEDFORD        SUNNY     85  63  47 N7        30.04F
BLUE HILL        N/A     81  64  56 VRB5      30.07S
NORWOOD        SUNNY     84  67  56 E5        30.04F
MARSHFIELD     SUNNY     75  64  69 NE5       30.05S
PLYMOUTH       SUNNY     80  60  50 E6        30.05F
TAUNTON        SUNNY     82  63  52 CALM      30.04F
NEW BEDFORD    SUNNY     81  64  56 SE6       30.04F
$$

MAZALL-241700-
CAPE COD AND THE ISLANDS

CITY           SKY/WX    TMP DP  RH WIND       PRES   REMARKS
FALMOUTH       SUNNY     77  61  57 NE8       30.06F
HYANNIS        SUNNY     75  65  70 N5        30.04F
CHATHAM        SUNNY     72  66  81 NE7       30.06F
PROVINCETOWN   SUNNY     71  65  81 NW7       30.06F
NANTUCKET      MOSUNNY   71  68  90 N12       30.05R
MARTHAS VNYRD  SUNNY     76  64  66 NE12      30.05F
$$

MAZALL-241700-
CENTRAL AND WESTERN MASSACHUSETTS

CITY           SKY/WX    TMP DP  RH WIND       PRES   REMARKS
WORCESTER      SUNNY     81  62  52 N7        30.10S
FITCHBURG      SUNNY     87  65  47 NE5       30.07F
ORANGE         SUNNY     85  65  51 N6        30.07F
SPRINGFIELD    SUNNY     84  64  50 CALM      30.06S
WESTFIELD      SUNNY     86  62  44 E8        30.07F
NORTH ADAMS    SUNNY     80  64  58 VRB3      30.10F
PITTSFIELD     SUNNY     80  64  58 W6        30.11F
$$

RIZALL-241700-
RHODE ISLAND

CITY           SKY/WX    TMP DP  RH WIND       PRES   REMARKS
PROVIDENCE     SUNNY     82  64  54 E5        30.06S
NEWPORT        SUNNY     81  63  54 E5        30.05F
BLOCK ISLAND   SUNNY     73  64  73 VRB6      30.07S
SMITHFIELD     SUNNY     82  67  60 VRB3      30.07F
WESTERLY       SUNNY     83  66  56 SE8       30.05F
$$

CTZALL-241700-
CONNECTICUT

CITY           SKY/WX    TMP DP  RH WIND       PRES   REMARKS
BRADLEY INTL   SUNNY     84  65  52 NE3       30.07F
HARTFORD       SUNNY     83  65  54 NE5       30.06F
BRIDGEPORT     SUNNY     78  65  63 SW8       30.06F
DANBURY        SUNNY     84  65  52 E7        30.09F
GROTON         SUNNY     77  65  66 S6        30.04S
NEW HAVEN      SUNNY     85  63  47 VRB3      30.06F
CHESTER        FAIR      86  66  51 N3        30.07S
MERIDEN        SUNNY     85  63  47 NE6       30.06F
WILLIMANTIC    SUNNY     87  66  49 CALM      30.05F
OXFORD         SUNNY     83  64  52 VRB5      30.10F
$$

MEZ002-015-021-024-NHZ003-005-008-011-012-014-VTZ005-008-241700-
NORTHERN NEW ENGLAND

CITY           SKY/WX    TMP DP  RH WIND       PRES   REMARKS
PORTLAND ME    SUNNY     84  66  54 E3        30.04F
BANGOR ME      MOSUNNY   83  65  54 W5        30.02F
CONCORD NH     SUNNY     83  64  52 CALM      30.07F
MANCHESTER NH  SUNNY     83  64  52 W3        30.05F
NASHUA NH      SUNNY     83  67  58 W3        30.06F
PORTSMOUTH NH  SUNNY     83  66  54 SW3       30.04F
JAFFREY NH     SUNNY     85  65  51 CALM      30.10F
KEENE NH       SUNNY     87  66  49 CALM      30.08F
BURLINGTON VT  SUNNY     82  65  56 VRB6      30.08S
MT. WASHINGTON MOSUNNY   61  52  72 NW21G28     N/A
$$

NYZ052-076-241700-
EASTERN NEW YORK

CITY           SKY/WX    TMP DP  RH WIND       PRES   REMARKS
ALBANY         SUNNY     81  64  56 CALM      30.10F
NEW YORK CITY  SUNNY     87  65  47 NE5       30.06F
$$

ANZALL-241700-
MARINE OBSERVATIONS

STATION/POSITION TIME  TEMP    WIND        PRES    VSBY  WAVE
                       AIR SEA DIR/SP/G                  HT/PER
                 (UTC) (F)     (DEG/KT/KT) (MB)    (MI)  (FT/S)
BOSTON BUOY      1550   67 64  320/  4/  4 1017.7F         3/10
BUZZARDS BAY     1600   69      50/  6/  6 1017.9F
NANTUCKET SOUND  1550   62 62   20/  4/  4 1017.9R         1/ 4
MASS BAY-STELLWA 1504   65 61  200/  2/  2 1017.1F         3/11
ISLE OF SHOALS   1600   73      50/  1/  2 1017.5F
S OF BLOCK IS    NOT AVBL
$$

......................KEY.........................
  SKY/WX - SKY CONDITION/PRESENT WEATHER
  TMP    - TEMPERATURE IN FAHRENHEIT
  DWPT   - DEWPOINT IN FAHRENHEIT
  RH     - RELATIVE HUMIDITY IN PERCENT
  WIND   - DIRECTION AND SPEED IN MPH
  PRES   - MEAN SEA LEVEL PRESSURE IN INCHES OF HG
  WCI    - WIND CHILL INDEX
  VSB    - VISIBILITY IN MILES
  HX     - HEAT INDEX
  TC     - TEMPERATURE IN CELSIUS
  VRB    - VARIABLE WIND DIRECTION
  N/A    - NOT AVAILABLE




USA.gov is the U.S. government's official web portal to all federal, state and local government web resources and services.